Regional Weather Roundup
Issued by NWS

Home | Current Version | Previous Version | Text Only | Print | Product List | Glossary Off
Versions: 1 2 3 4 5 6 7 8 9 10 11 12 13 14 15 16 17 18 19 20 21 22 23 24 25 26 27 28 29 30 31 32 33 34 35 36 37 38 39 40 41 42 43 44 45 46 47 48 49 50

000
ASUS43 KTOP 182108
RWRKS

WEATHER ROUNDUP FOR KANSAS
NATIONAL WEATHER SERVICE GOODLAND KS
400 PM CDT SAT APR 18 2015

NOTE:  "FAIR" INDICATES FEW OR NO CLOUDS BELOW 12,000 FEET WITH NO
SIGNIFICANT WEATHER AND/OR OBSTRUCTIONS TO VISIBILITY.

KSZ001>006-013>018-027>032-041>047-182200-
NORTHWEST KANSAS

CITY           SKY/WX    TMP DP  RH WIND       PRES   REMARKS
GOODLAND       TSTM      50  45  83 E14       29.80S
HAYS           PTSUNNY   72  46  40 E7        29.75F
HILL CITY      PTSUNNY   71  54  54 E9        29.77F
RUSSELL        PTSUNNY   65  50  58 SE23      29.75F
$$

KSZ061>065-074>080-084>089-182200-
SOUTHWEST KANSAS

CITY           SKY/WX    TMP DP  RH WIND       PRES   REMARKS
DODGE CITY     MOSUNNY   70  35  27 SW9G16    29.77F
ELKHART          N/A    N/A N/A N/A MISG        N/A
GARDEN CITY    PTSUNNY   65  36  34 NW3       29.77F
LIBERAL        PTSUNNY   66  30  26 SW8       29.80F
PRATT          MOSUNNY   68  54  60 SE14      29.75F
$$

KSZ066>073-081>083-090>101-182200-
SOUTHEAST KANSAS

CITY           SKY/WX    TMP DP  RH WIND       PRES   REMARKS
CHANUTE        MOSUNNY   70  59  68 SE7       29.86F
COFFEYVILLE    PTSUNNY   71  61  70 SE10      29.85F
MEDICINE LODGE   N/A     69  56  62 S9G22     29.75F
NEWTON         MOSUNNY   68  55  64 SE17      29.82F
PARSONS        PTSUNNY   69  60  73 SE6       29.86F
WICHITA INTL   PTSUNNY   72  57  59 SE18G26   29.78F
WICHITA JABRA  PTSUNNY   72  56  57 SE13      29.79F
WICHITA MCCONL PTSUNNY   73  58  57 SE17      29.79F
WINFIELD       MOSUNNY   74  56  53 SE13      29.81F
$$

KSZ007>012-019>026-033>040-048>060-102>105-182200-
NORTHEAST KANSAS

CITY           SKY/WX    TMP DP  RH WIND       PRES   REMARKS
CONCORDIA      PTSUNNY   73  53  49 SE8G17    29.78F
EMPORIA        LGT RAIN  64  58  80 SE12      29.83F
LAWRENCE       CLOUDY    63  59  87 SE9       29.87F
MANHATTAN      PTSUNNY   71  58  63 S15       29.81F
MARYSVILLE     CLOUDY    68  59  73 SE9       29.82F
OLATHE IND     CLOUDY    62  58  86 SW7       29.90F
OLATHE EXE     CLOUDY    62  59  90 SE7       29.88F
SALINA         MOSUNNY   76  55  48 S17       29.77F
TOPEKA BILLARD CLOUDY    64  58  80 S10       29.86F
TOPEKA FORBES  CLOUDY    65  60  84 S12       29.85F
$$



USA.gov is the U.S. government's official web portal to all federal, state and local government web resources and services.